| time (UTC) | temp C | wind direction | speed KPH | gust KPH | rain 1hr cm | rain 24hr cm | rain mn cm | humidity % | barometer mb |
| 20260502182615 | 22 | 18 | 12.9 | 25.7 | 0.00 | 0.00 | 0.00 | 41 | 1019.0 |
| 20260502182111 | 22 | 4 | 14.5 | 25.7 | 0.00 | 0.00 | 0.00 | 42 | 1018.9 |
| 20260502181609 | 22 | 332 | 16.1 | 22.5 | 0.00 | 0.00 | 0.00 | 44 | 1019.0 |
| 20260502181108 | 22 | 10 | 22.5 | 37.0 | 0.00 | 0.00 | 0.00 | 42 | 1019.0 |
| 20260502180604 | 22 | 18 | 20.9 | 33.8 | 0.00 | 0.00 | 0.00 | 43 | 1018.9 |
| 20260502164007 | 21 | 24 | 9.7 | 25.7 | 0.00 | 0.00 | 0.00 | 47 | 1019.4 |
| 20260502163503 | 21 | 335 | 11.3 | 16.1 | 0.00 | 0.00 | 0.00 | 51 | 1019.5 |
| 20260502163000 | 21 | 37 | 9.7 | 25.7 | 0.00 | 0.00 | 0.00 | 51 | 1019.4 |
| 20260502162457 | 20 | 341 | 9.7 | 17.7 | 0.00 | 0.00 | 0.00 | 50 | 1019.4 |
| 20260502161954 | 20 | 357 | 14.5 | 22.5 | 0.00 | 0.00 | 0.00 | 53 | 1019.4 |
| 20260502161450 | 20 | 38 | 9.7 | 22.5 | 0.00 | 0.00 | 0.00 | 53 | 1019.4 |
| 20260502160949 | 20 | 35 | 11.3 | 22.5 | 0.00 | 0.00 | 0.00 | 55 | 1019.4 |
| 20260502160446 | 20 | 330 | 8.0 | 20.9 | 0.00 | 0.00 | 0.00 | 56 | 1019.4 |
| 20260502151929 | 18 | 38 | 9.7 | 14.5 | 0.00 | 0.00 | 0.00 | 67 | 1019.3 |
| 20260502151426 | 18 | 14 | 14.5 | 24.1 | 0.00 | 0.00 | 0.00 | 65 | 1019.3 |
| 20260502150924 | 18 | 48 | 8.0 | 24.1 | 0.00 | 0.00 | 0.00 | 66 | 1019.2 |
| 20260502150420 | 17 | 38 | 11.3 | 20.9 | 0.00 | 0.00 | 0.00 | 68 | 1019.6 |
| 20260502130306 | 13 | 309 | 6.4 | 14.5 | 0.00 | 0.00 | 0.00 | 87 | 1017.9 |
| 20260502123751 | 12 | 334 | 8.0 | 14.5 | 0.00 | 0.00 | 0.00 | 88 | 1017.8 |
| 20260502123248 | 12 | 18 | 6.4 | 17.7 | 0.00 | 0.00 | 0.00 | 89 | 1017.7 |
| 20260502122745 | 12 | 1 | 8.0 | 14.5 | 0.00 | 0.00 | 0.00 | 89 | 1017.7 |
| 20260502122241 | 12 | 99 | 1.6 | 6.4 | 0.00 | 0.00 | 0.00 | 89 | 1017.6 |
| 20260502121740 | 12 | 20 | 4.8 | 11.3 | 0.00 | 0.00 | 0.00 | 89 | 1017.4 |
| 20260502121237 | 12 | 35 | 6.4 | 16.1 | 0.00 | 0.00 | 0.00 | 89 | 1017.4 |
| 20260502120733 | 12 | 13 | 8.0 | 9.7 | 0.00 | 0.00 | 0.00 | 89 | 1017.4 |
| 20260502120230 | 12 | 343 | 4.8 | 6.4 | 0.00 | 0.00 | 0.00 | 89 | 1017.3 |
| 20260502115728 | 12 | 31 | 6.4 | 6.4 | 0.00 | 0.00 | 0.00 | 89 | 1017.3 |
| 20260502115225 | 12 | 13 | 6.4 | 6.4 | 0.00 | 0.00 | 0.00 | 89 | 1017.2 |
| 20260502114720 | 12 | 349 | 6.4 | 9.7 | 0.00 | 0.00 | 0.00 | 89 | 1017.1 |
| 20260502114218 | 12 | 17 | 4.8 | 11.3 | 0.00 | 0.00 | 0.00 | 89 | 1017.3 |
| 20260502113715 | 12 | 319 | 3.2 | 3.2 | 0.00 | 0.00 | 0.00 | 89 | 1017.3 |
| 20260502113213 | 12 | 30 | 6.4 | 6.4 | 0.00 | 0.00 | 0.00 | 89 | 1017.1 |
| 20260502112711 | 12 | 327 | 4.8 | 9.7 | 0.00 | 0.00 | 0.00 | 89 | 1017.1 |
| 20260502112208 | 12 | 20 | 9.7 | 11.3 | 0.00 | 0.00 | 0.00 | 89 | 1017.1 |
| 20260502111705 | 12 | 359 | 8.0 | 11.3 | 0.00 | 0.00 | 0.00 | 88 | 1017.0 |
| 20260502111203 | 12 | 34 | 4.8 | 6.4 | 0.00 | 0.00 | 0.00 | 88 | 1016.8 |
| 20260502110700 | 12 | 41 | 6.4 | 9.7 | 0.00 | 0.00 | 0.00 | 88 | 1016.8 |
| 20260502110157 | 12 | 305 | 4.8 | 14.5 | 0.00 | 0.00 | 0.00 | 88 | 1016.6 |
| 20260502105655 | 12 | 355 | 6.4 | 11.3 | 0.00 | 0.00 | 0.00 | 88 | 1016.8 |
| 20260502105151 | 12 | 17 | 6.4 | 12.9 | 0.00 | 0.00 | 0.00 | 88 | 1016.3 |
| 20260502104649 | 12 | 8 | 9.7 | 17.7 | 0.00 | 0.00 | 0.00 | 87 | 1016.6 |
| 20260502104146 | 12 | 313 | 6.4 | 9.7 | 0.00 | 0.00 | 0.00 | 87 | 1016.3 |
| 20260502103643 | 12 | 0 | 4.8 | 9.7 | 0.00 | 0.00 | 0.00 | 87 | 1016.3 |
| 20260502103141 | 12 | 8 | 6.4 | 12.9 | 0.00 | 0.00 | 0.00 | 87 | 1016.3 |
| 20260502102638 | 12 | 28 | 6.4 | 11.3 | 0.00 | 0.00 | 0.00 | 87 | 1016.3 |
| 20260502102135 | 12 | 349 | 6.4 | 11.3 | 0.00 | 0.00 | 0.00 | 86 | 1016.1 |
| 20260502101633 | 12 | 34 | 6.4 | 11.3 | 0.00 | 0.00 | 0.00 | 86 | 1016.2 |
| 20260502101131 | 12 | 54 | 4.8 | 9.7 | 0.00 | 0.00 | 0.00 | 86 | 1015.9 |
| 20260502100629 | 12 | 70 | 6.4 | 11.3 | 0.00 | 0.00 | 0.00 | 86 | 1016.0 |
| 20260502100127 | 12 | 39 | 6.4 | 11.3 | 0.00 | 0.00 | 0.00 | 86 | 1015.7 |
| 20260502091101 | 13 | 49 | 4.8 | 9.7 | 0.00 | 0.00 | 0.00 | 84 | 1015.2 |
| 20260502090558 | 13 | 30 | 4.8 | 9.7 | 0.00 | 0.00 | 0.00 | 84 | 1015.0 |
| 20260502071452 | 13 | 346 | 9.7 | 16.1 | 0.00 | 0.00 | 0.00 | 88 | 1014.7 |
| 20260502070950 | 13 | 12 | 11.3 | 12.9 | 0.00 | 0.00 | 0.00 | 88 | 1014.8 |
| 20260502070448 | 13 | 62 | 4.8 | 16.1 | 0.00 | 0.00 | 0.00 | 88 | 1014.9 |
| 20260502065946 | 13 | 3 | 17.7 | 20.9 | 0.00 | 0.00 | 0.00 | 88 | 1014.9 |
| 20260502065444 | 13 | 14 | 9.7 | 14.5 | 0.00 | 0.00 | 0.00 | 88 | 1015.0 |
| 20260502064942 | 13 | 24 | 17.7 | 29.0 | 0.00 | 0.00 | 0.00 | 88 | 1014.7 |
| 20260502064440 | 13 | 350 | 14.5 | 22.5 | 0.00 | 0.00 | 0.00 | 88 | 1014.9 |
| 20260502063937 | 13 | 53 | 3.2 | 17.7 | 0.00 | 0.00 | 0.00 | 88 | 1014.8 |
| 20260502063434 | 13 | 342 | 14.5 | 24.1 | 0.00 | 0.00 | 0.00 | 88 | 1014.9 |
| 20260502062932 | 13 | 359 | 11.3 | 24.1 | 0.00 | 0.00 | 0.00 | 88 | 1014.7 |
| 20260502062429 | 13 | 36 | 16.1 | 22.5 | 0.00 | 0.00 | 0.00 | 88 | 1014.4 |
| 20260502061928 | 13 | 12 | 14.5 | 20.9 | 0.00 | 0.00 | 0.00 | 88 | 1014.4 |
| 20260502061425 | 13 | 28 | 8.0 | 25.7 | 0.00 | 0.00 | 0.00 | 88 | 1014.6 |
| 20260502060921 | 13 | 15 | 9.7 | 22.5 | 0.00 | 0.00 | 0.00 | 88 | 1014.4 |
| 20260502060416 | 13 | 17 | 16.1 | 20.9 | 0.00 | 0.00 | 0.00 | 88 | 1014.5 |
| 20260502055913 | 13 | 46 | 11.3 | 27.4 | 0.00 | 0.00 | 0.00 | 88 | 1014.4 |
| 20260502055411 | 13 | 344 | 11.3 | 27.4 | 0.00 | 0.00 | 0.00 | 88 | 1014.3 |
| 20260502054911 | 13 | 44 | 14.5 | 27.4 | 0.00 | 0.00 | 0.00 | 88 | 1014.5 |
| 20260502054408 | 13 | 3 | 8.0 | 20.9 | 0.00 | 0.00 | 0.00 | 89 | 1014.5 |
| 20260502053905 | 13 | 8 | 6.4 | 12.9 | 0.00 | 0.00 | 0.00 | 89 | 1014.3 |
| 20260502053403 | 13 | 92 | 6.4 | 16.1 | 0.00 | 0.00 | 0.00 | 89 | 1014.4 |
| 20260502052900 | 13 | 28 | 9.7 | 17.7 | 0.00 | 0.00 | 0.00 | 89 | 1014.3 |
| 20260502052358 | 13 | 45 | 16.1 | 22.5 | 0.00 | 0.00 | 0.00 | 89 | 1014.6 |
| 20260502051855 | 13 | 35 | 11.3 | 17.7 | 0.00 | 0.00 | 0.00 | 89 | 1014.5 |
| 20260502051354 | 13 | 52 | 8.0 | 17.7 | 0.00 | 0.00 | 0.00 | 89 | 1014.4 |
| 20260502050850 | 13 | 355 | 9.7 | 14.5 | 0.00 | 0.00 | 0.00 | 89 | 1014.4 |
| 20260502050347 | 13 | 21 | 14.5 | 27.4 | 0.00 | 0.00 | 0.00 | 89 | 1014.4 |
| 20260502045844 | 13 | 37 | 14.5 | 22.5 | 0.00 | 8.76 | 8.76 | 89 | 1014.4 |
| 20260502045340 | 13 | 17 | 14.5 | 27.4 | 0.00 | 8.76 | 8.76 | 90 | 1014.4 |
| 20260502044838 | 13 | 357 | 17.7 | 29.0 | 0.00 | 8.76 | 8.76 | 90 | 1014.5 |
| 20260502044333 | 13 | 17 | 17.7 | 27.4 | 0.00 | 8.76 | 8.76 | 90 | 1014.4 |
| 20260502043831 | 13 | 311 | 17.7 | 22.5 | 0.00 | 8.76 | 8.76 | 90 | 1014.4 |
| 20260502043329 | 13 | 31 | 9.7 | 27.4 | 0.00 | 8.76 | 8.76 | 91 | 1014.5 |
| 20260502042828 | 13 | 56 | 17.7 | 27.4 | 0.00 | 8.76 | 8.76 | 91 | 1014.6 |
| 20260502042326 | 13 | 320 | 8.0 | 12.9 | 0.00 | 8.76 | 8.76 | 91 | 1014.5 |
| 20260502041823 | 13 | 357 | 12.9 | 27.4 | 0.00 | 8.76 | 8.76 | 91 | 1014.4 |
| 20260502041320 | 13 | 50 | 9.7 | 20.9 | 0.00 | 8.76 | 8.76 | 92 | 1014.4 |
| 20260502040817 | 13 | 35 | 9.7 | 22.5 | 0.00 | 8.76 | 8.76 | 92 | 1014.2 |
| 20260502040314 | 13 | 327 | 14.5 | 22.5 | 0.00 | 8.76 | 8.76 | 92 | 1014.4 |
| 20260502035810 | 13 | 33 | 16.1 | 20.9 | 0.00 | 8.76 | 8.76 | 92 | 1014.3 |
| 20260502035307 | 13 | 287 | 16.1 | 27.4 | 0.00 | 8.76 | 8.76 | 93 | 1014.3 |
| 20260502034804 | 13 | 7 | 11.3 | 24.1 | 0.00 | 8.76 | 8.76 | 93 | 1014.3 |
| 20260502034303 | 13 | 345 | 17.7 | 24.1 | 0.00 | 8.76 | 8.76 | 93 | 1014.1 |
| 20260502033800 | 13 | 46 | 12.9 | 17.7 | 0.00 | 8.76 | 8.76 | 93 | 1014.0 |
| 20260502033258 | 13 | 2 | 16.1 | 20.9 | 0.00 | 8.76 | 8.76 | 93 | 1014.1 |
| 20260502032754 | 14 | 22 | 14.5 | 27.4 | 0.00 | 8.76 | 8.76 | 93 | 1013.9 |
| 20260502032251 | 13 | 121 | 6.4 | 25.7 | 0.00 | 8.76 | 8.76 | 93 | 1014.0 |
| 20260502031749 | 13 | 32 | 12.9 | 17.7 | 0.00 | 8.76 | 8.76 | 93 | 1013.7 |
| 20260502031246 | 13 | 26 | 8.0 | 20.9 | 0.00 | 8.76 | 8.76 | 93 | 1013.4 |
| 20260502030745 | 13 | 346 | 6.4 | 22.5 | 0.00 | 8.76 | 8.76 | 94 | 1013.5 |
| 20260502030242 | 13 | 31 | 9.7 | 24.1 | 0.00 | 8.76 | 8.76 | 94 | 1012.7 |
| 20260502025739 | 13 | 39 | 6.4 | 24.1 | 0.00 | 8.76 | 8.76 | 94 | 1012.8 |
| 20260502025237 | 13 | 49 | 22.5 | 33.8 | 0.00 | 8.76 | 8.76 | 94 | 1012.6 |
| 20260502024735 | 13 | 32 | 19.3 | 24.1 | 0.00 | 8.76 | 8.76 | 94 | 1012.8 |
| 20260502024232 | 13 | 36 | 6.4 | 24.1 | 0.00 | 8.76 | 8.76 | 94 | 1012.8 |
| 20260502023730 | 13 | 247 | 19.3 | 25.7 | 0.00 | 8.76 | 8.76 | 95 | 1012.4 |
| 20260502023228 | 14 | 3 | 16.1 | 27.4 | 0.00 | 8.76 | 8.76 | 95 | 1012.4 |
| 20260502022725 | 14 | 34 | 9.7 | 20.9 | 0.00 | 8.76 | 8.76 | 95 | 1012.5 |
| 20260502022221 | 14 | 36 | 11.3 | 25.7 | 0.18 | 8.76 | 8.76 | 95 | 1012.6 |
| 20260502021719 | 14 | 22 | 11.3 | 17.7 | 0.30 | 8.76 | 8.76 | 95 | 1012.7 |
| 20260502021216 | 14 | 75 | 16.1 | 35.4 | 0.30 | 8.74 | 8.74 | 95 | 1012.7 |
| 20260502020713 | 15 | 31 | 11.3 | 16.1 | 0.30 | 8.71 | 8.71 | 95 | 1012.7 |
| 20260502020210 | 15 | 34 | 9.7 | 12.9 | 0.13 | 8.69 | 8.69 | 95 | 1012.4 |
| 20260502015708 | 15 | 339 | 8.0 | 17.7 | 0.18 | 8.66 | 8.66 | 95 | 1012.4 |
| 20260502015204 | 15 | 328 | 9.7 | 20.9 | 0.18 | 8.66 | 8.66 | 95 | 1012.5 |
| 20260502014702 | 15 | 349 | 16.1 | 17.7 | 0.00 | 8.64 | 8.64 | 95 | 1012.5 |
| 20260502014158 | 15 | 21 | 12.9 | 14.5 | 0.00 | 8.64 | 8.64 | 95 | 1012.4 |
| 20260502013654 | 15 | 22 | 9.7 | 17.7 | 0.00 | 8.64 | 8.64 | 95 | 1012.1 |
| 20260502013149 | 15 | 347 | 11.3 | 12.9 | 0.00 | 8.64 | 8.64 | 95 | 1012.1 |
| 20260502012647 | 15 | 336 | 17.7 | 25.7 | 0.13 | 8.64 | 8.64 | 95 | 1011.5 |
| 20260502012146 | 15 | 8 | 17.7 | 29.0 | 0.13 | 8.64 | 8.64 | 95 | 1011.5 |
| 20260502011642 | 15 | 28 | 9.7 | 17.7 | 0.18 | 8.61 | 8.61 | 95 | 1011.3 |
| 20260502011137 | 15 | 22 | 9.7 | 17.7 | 0.30 | 8.61 | 8.61 | 95 | 1011.3 |
| 20260502010635 | 15 | 30 | 11.3 | 16.1 | 0.30 | 8.59 | 8.59 | 95 | 1011.3 |
| 20260502010132 | 15 | 310 | 20.9 | 24.1 | 0.30 | 8.56 | 8.56 | 95 | 1011.8 |
| 20260502005629 | 15 | 330 | 11.3 | 14.5 | 0.13 | 8.53 | 8.53 | 95 | 1011.6 |
| 20260502005127 | 15 | 305 | 9.7 | 12.9 | 0.00 | 8.51 | 8.51 | 95 | 1011.3 |
| 20260502004622 | 15 | 345 | 12.9 | 16.1 | 0.00 | 8.51 | 8.51 | 95 | 1010.9 |
| 20260502004119 | 15 | 125 | 3.2 | 20.9 | 0.00 | 8.51 | 8.51 | 95 | 1010.5 |
| 20260502003618 | 15 | 48 | 12.9 | 24.1 | 0.18 | 8.51 | 8.51 | 95 | 1010.4 |
| 20260502003114 | 15 | 81 | 9.7 | 17.7 | 0.18 | 8.51 | 8.51 | 95 | 1010.2 |
| 20260502002610 | 15 | 350 | 17.7 | 22.5 | 0.00 | 8.48 | 8.48 | 95 | 1010.4 |
| 20260502002108 | 15 | 16 | 14.5 | 16.1 | 0.13 | 8.48 | 8.48 | 95 | 1010.3 |
| 20260502001605 | 15 | 302 | 14.5 | 22.5 | 0.48 | 8.48 | 8.48 | 95 | 1010.5 |
| 20260502001102 | 15 | 0 | 12.9 | 20.9 | 0.48 | 8.46 | 8.46 | 95 | 1010.4 |
| 20260502000601 | 15 | 0 | 6.4 | 11.3 | 0.61 | 8.41 | 8.41 | 95 | 1010.4 |
| 20260502000057 | 15 | 41 | 8.0 | 20.9 | 1.02 | 8.36 | 8.36 | 95 | 1010.3 |
| 20260501235553 | 15 | 4 | 14.5 | 22.5 | 0.79 | 8.28 | 8.28 | 95 | 1010.6 |
| 20260501235049 | 15 | 48 | 16.1 | 22.5 | 0.36 | 8.18 | 8.18 | 95 | 1010.5 |
| 20260501234545 | 15 | 31 | 9.7 | 27.4 | 0.18 | 8.15 | 8.15 | 95 | 1010.6 |
| 20260501234043 | 15 | 82 | 11.3 | 24.1 | 0.00 | 8.13 | 8.13 | 95 | 1009.8 |
| 20260501233541 | 15 | 11 | 19.3 | 24.1 | 0.13 | 8.13 | 8.13 | 95 | 1009.4 |
| 20260501233037 | 15 | 39 | 6.4 | 14.5 | 0.13 | 8.13 | 8.13 | 95 | 1009.1 |
| 20260501232533 | 15 | 40 | 11.3 | 22.5 | 0.18 | 8.10 | 8.10 | 95 | 1009.3 |
| 20260501232031 | 15 | 7 | 11.3 | 20.9 | 0.30 | 8.10 | 8.10 | 95 | 1009.1 |
| 20260501231529 | 15 | 23 | 11.3 | 25.7 | 0.13 | 8.08 | 8.08 | 95 | 1010.1 |
| 20260501231027 | 15 | 10 | 4.8 | 27.4 | 0.18 | 8.05 | 8.05 | 96 | 1010.2 |
| 20260501230526 | 15 | 48 | 9.7 | 17.7 | 0.30 | 8.05 | 8.05 | 96 | 1009.9 |
| 20260501230023 | 16 | 28 | 16.1 | 22.5 | 0.00 | 8.00 | 8.00 | 96 | 1009.7 |
| 20260501225520 | 16 | 13 | 11.3 | 22.5 | 0.00 | 8.00 | 8.00 | 96 | 1009.5 |
| 20260501225016 | 16 | 86 | 6.4 | 16.1 | 0.00 | 8.00 | 8.00 | 96 | 1009.2 |
| 20260501224514 | 16 | 41 | 11.3 | 16.1 | 0.00 | 8.00 | 8.00 | 96 | 1009.4 |
| 20260501224011 | 16 | 57 | 6.4 | 16.1 | 0.00 | 8.00 | 8.00 | 96 | 1009.2 |
| 20260501223507 | 16 | 38 | 6.4 | 11.3 | 0.00 | 8.00 | 8.00 | 96 | 1009.2 |
| 20260501223003 | 16 | 70 | 4.8 | 16.1 | 0.00 | 8.00 | 8.00 | 96 | 1009.1 |
| 20260501222500 | 16 | 43 | 14.5 | 27.4 | 0.00 | 8.00 | 8.00 | 96 | 1008.9 |
| 20260501221956 | 16 | 26 | 12.9 | 25.7 | 0.00 | 8.00 | 8.00 | 96 | 1009.0 |
| 20260501221453 | 16 | 354 | 16.1 | 22.5 | 0.18 | 8.00 | 8.00 | 96 | 1009.2 |
| 20260501220951 | 16 | 20 | 19.3 | 27.4 | 0.18 | 8.00 | 8.00 | 96 | 1009.3 |
| 20260501220449 | 16 | 3 | 17.7 | 22.5 | 0.30 | 7.98 | 7.98 | 96 | 1009.4 |
| 20260501215944 | 16 | 12 | 19.3 | 29.0 | 1.19 | 7.98 | 7.98 | 96 | 1009.3 |
| 20260501215442 | 16 | 34 | 6.4 | 11.3 | 1.50 | 7.92 | 7.92 | 96 | 1009.6 |
| 20260501214937 | 16 | 2 | 9.7 | 14.5 | 1.50 | 7.75 | 7.75 | 96 | 1009.8 |
| 20260501214432 | 16 | 24 | 12.9 | 17.7 | 1.80 | 7.65 | 7.65 | 96 | 1010.1 |
| 20260501213928 | 16 | 56 | 12.9 | 25.7 | 1.63 | 7.47 | 7.47 | 96 | 1009.5 |
| 20260501213426 | 16 | 26 | 11.3 | 24.1 | 2.46 | 7.34 | 7.34 | 96 | 1009.5 |
| 20260501212921 | 16 | 39 | 16.1 | 17.7 | 1.50 | 7.14 | 7.14 | 96 | 1009.7 |
| 20260501212418 | 16 | 57 | 16.1 | 27.4 | 1.07 | 6.93 | 6.93 | 96 | 1009.6 |
| 20260501211914 | 16 | 344 | 19.3 | 25.7 | 0.79 | 6.88 | 6.88 | 96 | 1009.5 |
| 20260501211412 | 16 | 352 | 9.7 | 11.3 | 0.13 | 6.76 | 6.76 | 96 | 1009.5 |
| 20260501210909 | 16 | 96 | 1.6 | 9.7 | 0.13 | 6.76 | 6.76 | 96 | 1009.4 |
| 20260501210406 | 16 | 48 | 9.7 | 16.1 | 0.00 | 6.73 | 6.73 | 96 | 1008.8 |
| 20260501205902 | 16 | 44 | 9.7 | 20.9 | 0.18 | 6.73 | 6.73 | 96 | 1008.2 |
| 20260501205359 | 16 | 316 | 8.0 | 20.9 | 0.30 | 6.73 | 6.73 | 96 | 1007.9 |
| 20260501204856 | 16 | 51 | 6.4 | 12.9 | 0.43 | 6.71 | 6.71 | 96 | 1007.9 |
| 20260501204352 | 16 | 22 | 6.4 | 9.7 | 0.61 | 6.65 | 6.65 | 96 | 1008.1 |
| 20260501203848 | 16 | 25 | 9.7 | 22.5 | 1.27 | 6.63 | 6.63 | 96 | 1008.0 |
| 20260501203346 | 17 | 12 | 17.7 | 24.1 | 0.89 | 6.53 | 6.53 | 96 | 1008.7 |
| 20260501202843 | 16 | 63 | 11.3 | 14.5 | 0.61 | 6.43 | 6.43 | 96 | 1009.4 |
| 20260501202340 | 17 | 346 | 17.7 | 20.9 | 1.50 | 6.38 | 6.38 | 96 | 1008.8 |
| 20260501201837 | 17 | 41 | 6.4 | 20.9 | 1.27 | 6.30 | 6.30 | 96 | 1008.8 |
| 20260501201333 | 17 | 33 | 6.4 | 11.3 | 0.30 | 6.12 | 6.12 | 96 | 1009.0 |
| 20260501200830 | 17 | 30 | 8.0 | 17.7 | 0.13 | 6.10 | 6.10 | 96 | 1008.2 |
| 20260501200327 | 17 | 37 | 8.0 | 14.5 | 0.00 | 6.07 | 6.07 | 96 | 1007.7 |
| 20260501195825 | 17 | 51 | 16.1 | 17.7 | 0.00 | 6.07 | 6.07 | 96 | 1007.8 |
| 20260501195320 | 17 | 2 | 9.7 | 22.5 | 0.30 | 6.07 | 6.07 | 96 | 1007.9 |
| 20260501194817 | 17 | 41 | 3.2 | 11.3 | 0.43 | 6.05 | 6.05 | 96 | 1007.6 |
| 20260501194313 | 17 | 16 | 14.5 | 17.7 | 1.27 | 6.02 | 6.02 | 96 | 1007.9 |
| 20260501193809 | 17 | 127 | 1.6 | 6.4 | 1.19 | 5.99 | 5.99 | 96 | 1007.6 |
| 20260501193308 | 17 | 359 | 6.4 | 14.5 | 0.30 | 5.82 | 5.82 | 96 | 1007.6 |
| 20260501192805 | 17 | 6 | 9.7 | 14.5 | 0.48 | 5.79 | 5.79 | 96 | 1008.1 |
| 20260501192305 | 17 | 33 | 6.4 | 11.3 | 0.30 | 5.77 | 5.77 | 96 | 1007.7 |
| 20260501191759 | 17 | 32 | 9.7 | 12.9 | 0.13 | 5.71 | 5.71 | 96 | 1008.1 |
| 20260501191256 | 17 | 341 | 8.0 | 16.1 | 0.13 | 5.71 | 5.71 | 96 | 1008.6 |
| 20260501190753 | 17 | 115 | 6.4 | 11.3 | 0.00 | 5.69 | 5.69 | 96 | 1008.1 |
| 20260501190248 | 17 | 135 | 4.8 | 12.9 | 0.00 | 5.69 | 5.69 | 96 | 1007.7 |
| 20260501185744 | 17 | 72 | 4.8 | 22.5 | 0.18 | 5.69 | 5.69 | 96 | 1007.2 |
| 20260501185240 | 17 | 101 | 4.8 | 11.3 | 0.79 | 5.66 | 5.66 | 96 | 1007.0 |
| 20260501184737 | 17 | 138 | 4.8 | 6.4 | 5.33 | 5.64 | 5.64 | 96 | 1008.3 |
| 20260501184232 | 17 | 13 | 6.4 | 11.3 | 6.25 | 5.44 | 5.44 | 95 | 1008.8 |
| 20260501183728 | 17 | 86 | 9.7 | 12.9 | 1.37 | 4.62 | 4.62 | 96 | 1008.1 |
| 20260501183226 | 17 | 251 | 8.0 | 17.7 | 0.13 | 4.39 | 4.39 | 96 | 1010.4 |